Preview of NWS' New Version of Forecast
This preview is not operational and should not be used for support decisions.

Regional Weather Roundup (RWR)

Issued by National Weather Service (NWS)

                            
000
ASUS43 KMKX 232111
RWRWI 

WISCONSIN REGIONAL WEATHER ROUNDUP
NATIONAL WEATHER SERVICE MILWAUKEE/SULLIVAN WI
400 PM CDT THU MAY 23 2019

NOTE: "FAIR" INDICATES FEW OR NO CLOUDS BELOW 12,000 FEET WITH NO
SIGNIFICANT WEATHER AND/OR OBSTRUCTIONS TO VISIBILITY.

WIZ001-002-006>008-014>016-023>028-232200-
NORTHWEST WISCONSIN
  
CITY           SKY/WX    TMP DP  RH WIND       PRES   REMARKS
SUPERIOR ARPT  CLOUDY    57  47  69 N7        30.03S                  
ASHLAND        CLOUDY    57  48  72 NW9G22    30.02R                  
HAYWARD        CLOUDY    58  47  66 W6        30.03R                  
SIREN          CLOUDY    58  44  60 NW9       30.05R                  
CUMBERLAND     CLOUDY    55  43  62 W10       30.06R                  
RICE LAKE      CLOUDY    59  46  63 W8        30.06R                  
CHETEK         CLOUDY    58  46  66 W6        30.06R                  
LADYSMITH      CLOUDY    58  47  66 W9        30.06R                  
EAU CLAIRE     CLOUDY    59  44  57 W9        30.06R                  
MENOMONIE      CLOUDY    56  42  59 W10       30.08R                  
NEW RICHMOND   CLOUDY    59  44  58 W8        30.08R                  
OSCEOLA        CLOUDY    59  47  63 W6        30.10R                  
$$
 
WIZ003>005-009-010-017-018-232200-
NORTH CENTRAL WISCONSIN
  
CITY           SKY/WX    TMP DP  RH WIND       PRES   REMARKS
MANITOWISH WTR CLOUDY    54  51  90 NW13G20   30.00R                  
ARBOR VITAE    LGT RAIN  57  51  82 N7        29.99R                  
WOODRUFF       LGT RAIN  57  51  82 N7        29.99R                  
RHINELANDER    LGT RAIN  61  45  55 W13G24    29.99R                  
EAGLE RIVER    LGT RAIN  55  49  79 NW9G20    29.97R                  
LAND O LAKES   LGT RAIN  54  50  87 NW7G20    30.00R                  
PHILLIPS       CLOUDY    57  46  64 W6        30.01R                  
TOMAHAWK       CLOUDY    59  45  60 SW7G16    30.01R                  
MEDFORD        CLOUDY    55  44  68 W8        30.03R                  
MERRILL        PTSUNNY   59  47  63 W15       30.01R                  
$$
 
WIZ029-030-035-036-043>047-232200-
CENTRAL WISCONSIN
  
CITY           SKY/WX    TMP DP  RH WIND       PRES   REMARKS
WAUSAU         CLOUDY    59  46  62 W14G23    30.01R                  
MOSINEE        CLOUDY    57  45  62 W13G22    30.04R                  
MARSHFIELD     CLOUDY    60  47  61 W13G20    30.04R                  
STEVENS POINT  CLOUDY    59  45  58 NW10G17   30.04R                  
WAUPACA        CLOUDY    66  48  51 W12G21    30.02R                  
WAUTOMA        PTSUNNY   66  48  52 W20G25    30.03R                  
WISC RAPIDS    CLOUDY    64  46  52 W13G22    30.04R                  
CAMP DOUGLAS   PTSUNNY   64  48  55 W18G24    30.06R                  
$$
 
WIZ011>013-019>022-031-037>040-048>050-232200-
NORTHEAST WISCONSIN
  
CITY           SKY/WX    TMP DP  RH WIND       PRES   REMARKS
ANTIGO         CLOUDY    58  46  66 W18G25    30.00R                  
SHAWANO        CLOUDY    64  48  54 W15G23    29.99R                  
OCONTO         CLOUDY    65  48  53 W17G25    29.96R                  
STURGEON BAY   PTSUNNY   63  48  58 W22       29.96R                  
GREEN BAY      CLOUDY    65  49  56 W16       29.99R                  
MANITOWOC      FAIR      67  49  52 W18G25    29.99R                  
APPLETON       PTSUNNY   64  43  45 W15G23    29.99R                  
CLINTONVILLE   CLOUDY    63  44  51 W16G22    30.01R                  
OSHKOSH        FAIR      68  48  48 W15G29    30.00R                  
$$
 
WIZ032>034-041-042-053>061-232200-
SOUTHWEST WISCONSIN
  
CITY           SKY/WX    TMP DP  RH WIND       PRES   REMARKS
LA CROSSE      CLOUDY    65  47  52 W14       30.08R                  
SPARTA         PTSUNNY   64  47  55 W17G23    30.08R                  
VIROQUA        CLOUDY    64  50  61 W10G21    30.08R                  
BOSCOBEL       FAIR      69  49  48 W12       30.07R                  
PRAIRIE DU CHI FAIR      69  47  45 W13       30.07S                  
PLATTEVILLE    FAIR      71  52  51 NW13G20   30.07R                  
$$

WIZ056-057-062-063-064-067-068-232200-
SOUTH CENTRAL WISCONSIN
  
CITY           SKY/WX    TMP DP  RH WIND       PRES   REMARKS
REEDSBURG      FAIR      66  49  54 NW16      30.05R                  
BARABOO/DELLS  FAIR      68  45  43 W16G22    30.05R                  
LONE ROCK      FAIR      69  48  47 W15G25    30.05R                  
MINERAL POINT  FAIR      70  52  52 W12       30.07R                  
MADISON        FAIR      70  48  45 NW14G23   30.02R                  
MIDDLETON      FAIR      71  49  46 W15       30.04R                  
WATERTOWN      FAIR      70  50  48 W14G20    30.02R                  
MONROE         FAIR      71  47  42 W15       30.05R                  
JANESVILLE     MOSUNNY   73  48  40 W17G23    30.02S                  
$$
 
WIZ051-052-058>065-066-070>072-232200-
SOUTHEAST WISCONSIN
  
CITY           SKY/WX    TMP DP  RH WIND       PRES   REMARKS
MILWAUKEE      FAIR      75  47  36 W14       29.99R                  
WAUKESHA       MOSUNNY   72  46  40 W20G25    30.02R                  
MILWAUKEE/TIMM SUNNY     72  45  37 W14G23    30.00R                  
RACINE         FAIR      74  50  42 NW12G21   30.01S                  
KENOSHA        FAIR      74  53  48 W17G25    30.01S                  
FOND DU LAC    FAIR      69  49  48 NW15      30.01R                  
SHEBOYGAN      FAIR      70  50  49 NW15G24   29.99R                  
WEST BEND      FAIR      70  46  43 W14G23    30.00R                  
JUNEAU         FAIR      69  49  49 W10G20    30.03R                  
$$

LSZ147-162-232200-
LAKE SUPERIOR
  
STATION/POSITION TIME  TEMP    WIND        PRES    WAVE
                       AIR SEA DIR/SP/G            HT/PER
                 (UTC) (F)     (DEG/KT/KT) (MB)    (FT/S)
W MID LAKE BUOY  2050   41 36  330/  8/ 10 1015.2R   1/ 5
$$
 
LMZ867-665-643>646-232200-
LAKE MICHIGAN
  
STATION/POSITION TIME  TEMP    WIND        PRES    WAVE
                       AIR SEA DIR/SP/G            HT/PER
                 (UTC) (F)     (DEG/KT/KT) (MB)    (FT/S)
CHAMBERS ISLAND  2040   62     210/  8/ 12 1012.5R
N MID LAKE BUOY  2050   43 37  220/ 10/ 10 1012.6R   2/ 5
NORTHPORT PIER   2040   67     240/  3/  8 1012.9R
KEWAUNEE LAKESHO 2036   64     280/ 11/ 20 1014.4R
SHEBOYGAN LAKESH 2100   67     290/ 16/ 20 1015.1R
MILWAUKEE LAKESH 2050   71     290/ 16/ 20   N/A
S MID LAKE BUOY  2050   47 40  220/  8/ 10 1016.9F   1/ 3
KENOSHA   LAKESH 2100   72     280/ 14/ 20 1015.6
$$

TC  - TEMPERATURE IN CELSIUS
VSB - VISIBILITY IN STATUTE MILES
WCI - WIND CHILL INDEX
HX  - HEAT INDEX